Theta_e
355 355 355 354 353 354 355 356 355 354 352 351 350 349 349 350 351 352 352 352 353 354 355 356 355 357 358 359 357 355 356 357 358 359 359 360 361 360 359 359 359 360 361 362 361 359 358 357 356 356 357 357 357 357 356 354 354 352 353 354 354 357 358 359 362 362 361 360 359 357 356 355 352 351 350 349 348 347 347 347 347 348 347 346 347
355 355 355 353 352 352 353 354 354 353 352 351 350 349 348 349 349 351 352 352 353 353 354 355 356 355 356 357 357 356 355 355 357 358 358 358 360 361 360 359 359 359 361 363 362 361 359 359 357 357 357 357 358 357 356 354 353 351 353 354 354 355 357 358 359 362 362 360 358 358 356 354 354 352 350 349 348 347 348 348 348 348 348 347 350
353 354 354 354 355 352 351 352 352 352 351 349 348 347 347 348 348 349 350 351 352 353 353 355 355 356 355 355 355 356 355 355 355 357 358 357 359 360 360 360 359 359 360 361 361 361 360 359 359 357 356 356 356 356 356 355 354 353 353 353 353 354 355 356 357 359 361 360 359 358 357 355 354 352 350 349 349 348 349 349 348 349 349 349 351
351 352 353 354 354 353 353 354 353 352 351 350 349 347 346 346 346 347 348 348 349 351 352 354 355 354 355 356 355 355 355 355 356 357 357 358 358 358 359 359 358 358 359 359 359 359 360 360 359 358 357 356 355 355 355 356 356 355 354 354 353 354 354 354 353 353 354 355 356 357 358 358 356 354 352 351 349 349 349 349 349 349 350 351 352
350 351 352 353 353 353 353 353 353 353 352 352 351 348 347 348 347 346 346 346 346 347 348 351 352 353 355 355 354 355 355 354 355 355 356 356 356 355 355 355 356 357 358 360 359 360 361 360 359 358 357 355 354 354 354 355 356 357 357 355 353 353 354 352 352 353 353 352 353 354 357 358 357 355 355 353 350 350 350 350 351 352 351 351 352
350 351 352 354 356 356 354 353 354 353 352 352 351 348 348 349 349 348 347 346 346 346 346 347 349 351 353 353 353 354 354 354 355 356 356 357 355 354 354 354 355 355 358 359 359 359 359 358 358 359 358 356 354 355 356 356 357 359 359 357 355 353 354 352 351 353 354 353 353 354 355 355 355 354 355 356 353 351 352 352 353 354 353 352 352
351 351 351 354 359 359 355 355 359 357 354 353 353 351 351 350 349 348 348 347 347 347 346 345 346 347 349 351 352 352 353 355 356 357 357 357 356 354 353 353 354 356 356 357 357 358 357 356 356 356 356 355 353 355 358 358 357 356 356 357 356 354 353 354 353 353 354 354 354 354 353 353 353 353 355 357 355 353 353 353 353 354 353 353 353
356 355 355 357 361 361 357 358 361 359 356 355 353 353 353 352 349 348 347 346 345 348 349 347 345 345 345 348 352 353 353 352 354 356 356 357 358 357 357 356 354 354 354 356 358 358 356 355 356 355 355 354 352 353 355 354 354 353 353 355 356 355 354 354 354 354 355 355 354 353 352 352 354 355 354 355 355 356 356 354 352 352 351 351 351
359 359 360 361 362 362 360 360 360 357 356 356 355 354 355 353 351 350 349 347 344 346 348 348 348 347 346 347 351 354 354 352 353 356 357 358 359 360 359 357 355 354 355 358 360 358 355 353 353 354 356 355 353 352 353 353 353 353 353 355 355 356 356 356 356 355 355 356 357 356 354 355 355 354 353 353 354 355 357 355 352 350 349 348 348
361 360 360 361 362 362 362 361 359 357 357 356 355 355 355 354 354 354 353 351 348 347 346 347 349 349 347 347 348 351 353 353 354 356 358 357 358 359 358 357 356 355 356 358 359 358 357 354 352 352 354 356 355 354 354 355 354 354 355 356 356 356 358 358 358 357 356 358 358 357 356 356 355 354 353 354 353 352 354 354 352 349 348 348 349
360 359 358 359 360 360 361 362 361 360 358 356 355 355 355 355 356 357 357 355 353 351 348 348 348 348 349 348 348 349 351 353 354 356 356 356 356 357 357 358 358 357 357 357 357 356 355 353 352 351 352 354 354 354 354 354 355 356 357 357 357 357 358 358 358 358 359 359 358 357 357 356 356 356 355 354 353 352 353 354 354 351 348 349 351
358 358 358 357 358 357 357 358 359 360 359 357 355 355 355 356 358 358 359 357 355 352 351 349 348 350 352 352 350 351 351 351 352 353 354 354 356 357 357 358 358 357 357 357 355 354 352 351 352 353 353 353 353 354 354 354 355 356 357 357 356 355 356 357 357 358 358 359 358 358 357 356 356 356 355 354 354 354 355 356 357 353 350 350 350
357 357 356 356 357 356 355 354 356 357 358 357 356 355 355 358 358 357 358 358 356 353 352 351 350 352 355 354 352 351 350 350 351 351 352 353 354 356 356 357 357 357 356 355 353 351 351 351 351 351 352 353 352 353 354 354 354 355 355 355 356 355 357 358 358 357 356 356 357 357 357 356 356 356 355 354 354 356 356 355 356 356 355 353 351
356 355 355 355 355 354 353 353 354 355 355 355 355 355 356 356 355 356 356 356 356 354 352 352 353 355 356 353 349 349 349 350 350 351 352 352 353 354 354 354 355 355 355 354 352 351 351 351 351 350 351 351 349 350 352 352 353 354 354 355 355 355 356 356 357 357 356 356 356 356 356 355 356 356 355 355 356 356 356 355 355 356 356 354 352
355 355 354 353 353 353 352 352 352 352 352 352 352 352 354 354 354 354 354 354 355 354 352 352 353 354 353 348 345 346 347 348 349 349 350 350 350 350 351 352 353 353 352 352 351 351 351 350 349 348 349 349 348 348 350 352 352 353 353 353 353 353 353 354 354 355 356 356 355 355 356 356 356 356 356 355 356 356 356 356 356 355 355 354 353
352 353 352 351 351 352 352 351 351 350 350 350 350 350 352 352 352 352 353 352 353 352 350 351 351 352 351 347 346 346 345 345 347 347 348 348 348 349 351 352 353 352 351 349 348 349 350 349 349 349 350 349 349 348 349 349 349 348 348 350 351 351 352 352 352 353 354 354 354 354 354 355 355 354 353 353 354 355 355 355 355 355 354 352 350
349 350 350 350 350 350 351 350 349 348 348 349 348 348 349 349 350 350 349 349 350 349 348 348 349 349 349 347 346 345 343 342 343 344 345 345 346 349 351 352 351 349 348 347 346 347 349 348 347 346 343 340 339 339 340 340 340 341 344 347 349 350 351 351 351 351 352 351 352 353 353 353 353 352 352 351 351 352 353 352 352 351 349 348 349
347 348 348 348 349 349 348 349 349 348 347 346 346 346 345 346 346 347 347 347 347 346 346 346 346 346 345 343 342 341 339 338 338 340 342 343 345 347 348 348 347 344 343 343 344 346 346 342 338 333 327 322 321 323 324 325 326 327 331 338 344 347 349 348 347 347 346 346 347 348 350 350 351 351 351 350 349 349 349 349 350 348 346 346 348
345 345 345 346 346 346 345 346 347 347 346 345 344 344 344 344 344 344 344 343 343 342 341 341 341 341 339 337 336 335 336 335 334 336 338 340 342 343 342 343 341 338 338 339 339 341 339 335 330 323 316 315 315 315 314 313 314 313 316 329 340 343 342 340 339 338 338 339 341 342 344 346 347 348 348 349 348 346 346 347 348 347 346 347 347
345 345 345 345 345 344 344 344 345 344 344 343 342 342 342 342 341 341 340 340 339 339 338 337 337 337 336 335 334 333 332 332 331 332 333 334 335 335 335 336 333 330 331 332 332 332 328 322 318 313 311 311 312 312 312 311 311 312 315 324 333 334 334 335 335 335 337 339 340 342 343 344 345 345 345 346 344 342 342 343 342 341 341 342 343
344 344 345 345 345 344 344 344 344 343 343 343 342 342 341 341 339 338 338 338 338 336 336 335 335 334 334 333 333 331 330 330 330 330 330 330 331 331 330 330 327 324 325 326 327 324 317 312 314 316 317 317 316 316 316 315 316 320 324 328 331 333 335 337 337 338 340 341 340 340 341 342 342 341 340 339 337 336 337 337 335 334 334 334 334
342 342 343 344 343 344 343 343 343 342 342 342 341 341 340 339 338 337 335 335 335 333 333 332 331 330 330 330 330 328 328 328 329 329 330 330 331 330 329 329 327 324 323 323 322 317 313 316 323 328 329 327 325 323 321 321 324 329 332 334 334 336 337 337 337 339 340 340 338 337 337 336 335 335 334 333 331 331 331 331 329 329 330 329 328
338 340 341 342 342 342 341 341 341 340 340 340 340 339 339 338 337 336 335 334 333 333 332 332 331 329 325 323 322 321 320 320 320 320 322 322 322 323 323 322 320 319 319 318 316 316 320 326 330 332 333 332 330 326 325 327 330 334 335 336 336 337 338 338 338 338 337 336 336 335 334 332 331 330 330 328 327 326 326 326 325 324 325 325 324
330 333 334 335 337 339 339 339 339 339 339 339 338 338 338 337 337 336 335 335 334 334 334 333 332 329 324 321 321 322 320 318 316 315 316 316 315 316 318 318 316 317 321 321 319 322 329 332 332 332 334 333 332 329 329 330 332 333 335 336 337 338 338 338 338 336 335 334 334 333 332 330 328 327 326 325 325 325 325 325 324 322 321 322 322
325 326 326 327 329 332 333 334 335 336 337 337 337 337 337 337 337 336 336 336 335 335 335 334 333 331 328 326 327 327 327 326 324 322 321 322 320 320 322 321 320 323 327 327 326 328 332 333 332 333 334 334 333 332 332 332 333 333 335 336 336 337 337 337 337 336 335 334 333 331 330 330 329 328 328 328 328 328 328 328 328 325 323 322 322
324 323 322 322 323 325 327 329 330 331 331 332 333 334 335 336 336 335 335 335 335 334 333 332 331 330 329 328 327 327 326 327 326 323 322 323 323 324 325 326 326 328 330 330 331 332 332 331 332 333 334 334 334 334 333 333 333 334 334 334 334 334 334 334 334 335 335 334 333 331 331 331 331 330 328 327 327 327 327 328 328 327 326 325 324
326 324 323 321 320 320 321 323 326 328 330 330 330 330 331 332 332 330 330 330 330 328 327 327 328 328 327 326 325 325 325 324 324 323 323 322 323 325 327 328 329 330 330 330 331 331 331 330 331 332 333 333 334 333 332 331 330 331 332 332 332 332 332 332 332 332 333 333 332 331 330 329 328 327 325 322 321 322 322 322 323 324 325 326 326
327 326 326 324 322 320 319 318 320 322 325 326 326 326 326 326 326 326 325 325 326 325 324 325 326 327 328 327 324 324 324 323 322 323 323 323 323 325 327 328 329 329 329 330 330 330 330 330 330 330 330 331 331 330 330 329 328 328 328 329 329 329 330 330 329 330 330 330 330 330 328 326 325 324 322 320 319 319 320 320 321 321 323 324 325
326 325 326 326 325 324 322 320 318 318 318 318 318 319 322 322 322 322 322 323 324 325 324 322 322 323 324 324 323 324 323 321 322 323 323 322 323 324 326 327 328 328 329 330 330 330 329 329 329 329 329 328 328 328 328 328 327 326 326 326 326 326 326 327 327 327 327 327 327 327 327 325 322 321 320 319 320 320 320 320 320 321 321 322 323
328 325 325 326 327 326 326 325 322 319 318 318 316 316 317 317 317 317 318 319 320 321 320 319 320 319 317 315 315 316 318 319 321 322 322 322 323 324 325 326 326 327 328 329 329 329 329 328 327 327 327 327 327 327 326 326 326 326 325 325 325 325 325 325 325 325 325 324 323 323 323 321 320 319 320 321 322 322 320 320 320 321 321 322 322
330 327 325 326 327 327 326 327 326 323 322 321 320 318 317 316 316 316 316 317 317 317 317 317 318 318 316 314 312 311 313 317 320 321 321 321 322 323 324 326 327 326 327 327 327 327 327 326 325 325 325 325 325 325 325 325 325 325 325 324 324 324 324 323 323 324 323 323 323 322 321 320 320 319 319 320 321 321 320 319 320 320 320 321 321
331 330 329 329 328 327 327 328 328 327 326 325 324 322 321 320 319 318 317 317 316 317 317 318 318 317 316 315 313 311 312 315 318 320 320 320 321 321 322 324 326 326 326 326 326 325 325 325 324 324 324 324 324 324 324 324 324 324 324 324 324 323 323 322 322 323 322 322 322 322 322 321 321 320 321 321 321 320 320 320 320 319 319 319 320
327 327 328 330 329 328 328 329 329 329 329 328 327 326 326 324 322 320 319 319 319 318 318 319 319 318 317 315 313 311 312 313 316 319 321 322 322 322 322 322 323 323 325 325 325 324 324 323 323 323 323 322 322 322 322 322 322 322 322 322 322 321 321 320 321 321 320 321 321 320 320 320 319 319 319 319 320 320 320 320 319 318 318 318 318
326 324 323 326 329 329 328 328 328 328 328 327 327 328 328 327 325 323 321 321 320 320 319 319 319 319 319 317 315 313 311 312 314 318 322 323 323 323 324 324 323 323 323 323 323 322 322 322 322 321 321 320 320 320 320 320 320 319 319 319 319 318 316 316 317 317 317 318 318 317 317 317 317 316 316 316 317 318 318 318 317 317 316 316 316
327 326 323 324 328 329 327 326 326 327 326 326 326 327 327 327 327 327 325 324 324 323 322 320 319 319 319 319 317 315 313 311 313 315 319 321 321 321 323 325 324 322 321 321 321 320 320 319 319 318 318 317 317 317 317 317 317 317 316 316 317 316 313 313 314 314 314 316 316 315 314 314 313 312 312 312 313 314 314 315 315 314 314 314 313
325 326 326 326 326 327 327 326 326 326 326 325 325 326 326 326 326 326 326 326 326 327 325 323 321 320 319 319 319 317 314 313 313 314 315 318 320 321 321 321 321 320 319 319 319 318 317 317 316 315 315 315 314 314 314 314 314 314 313 314 315 314 313 313 313 312 312 313 313 312 311 311 310 310 310 310 310 310 310 311 311 311 311 311 310
320 323 326 326 326 327 327 327 326 325 322 321 322 323 324 324 324 324 324 324 325 326 326 325 323 321 319 319 319 318 316 316 316 317 317 318 319 320 320 319 319 319 318 318 318 317 317 316 315 314 314 314 313 313 313 312 312 312 312 312 313 312 312 312 312 311 310 311 310 310 309 309 309 308 308 308 308 308 308 308 307 307 307 308 308
319 321 322 321 321 322 323 325 324 322 320 321 323 324 324 323 322 322 322 323 323 324 325 326 326 323 321 320 319 318 317 318 318 319 319 320 320 320 319 318 318 318 317 316 316 316 316 315 314 314 313 313 312 312 312 311 312 312 311 311 312 311 311 311 310 310 309 309 308 308 307 307 307 307 306 306 307 307 306 306 306 306 306 306 306
321 322 321 319 319 319 320 321 322 322 321 322 322 322 322 322 321 321 321 321 322 322 323 325 326 325 324 323 321 319 319 319 320 321 321 321 320 319 318 318 318 317 316 316 315 315 315 314 314 313 312 311 311 311 310 310 310 310 309 310 310 310 310 309 309 308 308 307 306 306 306 305 305 305 305 305 305 305 305 305 305 306 306 306 306
321 322 322 320 320 319 319 319 320 320 321 320 320 320 321 322 322 322 321 321 322 322 321 323 324 324 324 324 324 323 322 322 322 321 320 320 319 318 318 318 317 317 316 315 315 315 314 313 313 312 311 310 310 310 309 309 309 309 308 308 309 309 309 308 308 307 306 305 305 304 304 304 304 303 304 304 304 304 304 304 305 305 306 306 306
319 321 322 321 320 319 318 318 319 319 320 320 320 322 323 323 322 322 321 321 322 322 321 322 323 323 323 323 324 323 322 322 321 319 319 319 319 318 318 317 316 316 316 315 314 313 313 312 312 311 310 310 310 309 309 309 308 308 308 308 308 308 308 307 307 306 305 304 303 303 302 302 302 302 302 303 303 303 304 304 304 305 305 305 306
318 319 320 319 319 319 317 317 319 319 320 320 321 321 322 321 321 321 321 321 321 320 319 320 322 321 321 321 320 320 319 319 319 318 318 318 318 318 317 316 315 315 314 313 313 312 312 312 311 311 310 310 309 309 308 308 307 307 307 307 307 307 306 306 305 304 303 302 302 301 301 301 301 301 301 301 302 302 302 303 304 304 305 305 305
317 318 318 317 317 317 317 317 319 319 319 320 320 320 321 320 320 319 319 319 319 319 318 318 320 321 320 320 319 318 318 318 318 318 317 317 317 317 316 315 314 314 313 312 312 311 311 311 310 310 309 309 308 308 307 307 307 307 306 306 306 305 305 305 304 302 301 300 300 300 299 299 299 299 300 300 300 301 301 302 303 303 304 304 304
315 317 318 317 317 317 317 317 318 318 318 318 317 317 318 318 317 317 317 317 317 317 316 316 317 319 320 319 319 318 318 318 318 317 317 317 316 316 315 314 313 313 312 312 311 310 310 310 309 309 308 308 307 307 306 306 306 306 305 305 305 304 304 303 302 301 300 299 299 298 298 298 298 298 299 299 299 300 300 301 302 302 303 303 303
317 317 317 316 317 317 317 317 317 317 316 316 315 315 316 316 315 316 316 316 316 316 316 316 316 316 317 318 318 318 318 318 317 317 317 316 315 315 314 313 312 312 312 311 310 310 309 309 308 308 307 307 306 306 305 305 305 304 303 303 303 302 302 301 300 299 299 298 298 297 297 297 297 297 298 298 299 299 299 300 301 301 302 302 302
316 315 315 315 315 315 315 316 316 316 315 314 314 314 314 314 314 315 316 316 316 316 315 315 316 315 316 317 317 317 317 316 316 316 315 315 314 314 313 312 312 311 311 310 309 309 308 308 307 307 306 306 305 304 304 304 303 302 302 301 301 300 300 299 299 298 298 297 297 296 296 296 296 296 297 298 298 298 299 299 300 301 301 301 302
314 313 315 314 314 314 314 314 314 314 314 313 313 313 313 313 313 314 314 315 315 315 315 315 315 315 315 315 315 315 315 314 314 314 314 314 313 313 312 312 311 311 309 309 308 308 307 306 305 305 305 304 304 303 303 302 302 301 300 300 299 299 299 298 298 297 296 295 295 295 296 296 296 296 296 297 297 298 299 299 300 300 301 301 302
314 313 314 313 313 313 313 313 314 314 314 313 313 313 313 313 313 313 313 314 314 314 314 314 314 314 314 314 314 314 313 313 313 313 313 312 312 311 311 311 310 309 309 308 307 306 306 305 304 304 304 303 303 302 302 301 301 300 299 299 298 298 297 297 296 296 295 294 295 295 295 295 295 295 296 297 297 298 298 299 299 300 300 301 302
312 313 313 312 312 312 312 312 313 313 312 312 312 312 312 312 312 312 312 312 312 312 312 312 312 313 313 313 313 312 312 312 312 312 311 311 311 310 309 309 308 308 308 307 306 306 305 304 304 303 303 302 302 301 300 300 300 299 298 297 297 297 296 296 295 295 294 294 294 294 294 295 295 295 296 297 297 298 298 299 299 300 300 301 302
312 312 312 312 311 311 311 312 312 312 311 312 312 311 311 311 311 311 311 311 311 311 311 311 311 311 311 311 311 311 311 310 310 310 310 310 310 309 308 308 307 307 307 306 305 305 305 304 303 303 302 301 301 300 299 299 298 298 297 297 296 296 295 295 294 294 294 293 293 293 294 295 295 296 297 297 298 298 298 299 299 300 300 301 302
312 311 311 311 311 311 310 311 311 311 311 311 311 311 311 311 310 311 310 310 310 310 310 310 310 309 309 309 309 309 309 309 309 308 308 308 308 308 307 307 307 306 305 305 305 304 304 303 302 302 301 300 300 299 299 298 298 297 297 296 296 295 295 294 294 293 293 293 293 293 294 295 296 297 297 298 298 298 299 299 299 300 300 301 301
Wind_Speed
18 18 18 17 17 16 17 17 17 16 15 15 14 15 14 14 13 13 13 13 13 13 14 13 13 12 13 13 12 12 13 14 13 12 14 15 14 14 12 11 12 13 14 14 12 12 13 14 15 16 15 15 15 14 14 14 14 14 13 13 13 11 10 10 8 10 14 13 12 13 12 10 10 10 10 10 9 10 12 12 9 10 14 18 17
14 12 11 12 14 15 15 16 17 16 15 15 15 14 13 13 13 13 13 14 13 13 13 14 13 13 13 13 14 14 14 14 14 14 15 16 16 14 12 12 13 13 13 14 13 13 13 14 16 15 14 15 15 15 14 14 14 14 12 11 12 11 10 12 11 10 13 14 13 13 12 11 10 9 10 11 11 11 12 14 14 13 14 15 12
13 12 10 7 9 13 13 11 13 14 15 15 15 15 14 14 14 13 14 14 13 14 15 14 14 14 14 13 14 14 14 14 15 15 15 16 17 15 13 13 13 13 13 12 13 13 13 14 15 14 14 14 14 14 14 14 14 14 13 12 13 12 10 10 10 10 12 14 15 14 13 13 11 10 11 12 12 11 13 14 14 12 12 13 12
11 13 15 11 9 15 14 9 9 12 13 12 12 13 14 14 15 15 14 14 13 14 14 14 14 15 15 15 15 14 13 14 15 15 15 16 16 13 11 10 10 11 12 12 13 13 13 14 15 15 13 13 14 15 15 14 14 14 14 13 11 10 9 8 8 11 13 14 15 15 15 15 14 13 14 13 12 14 15 15 14 13 13 12 11
12 14 19 16 11 14 14 10 12 14 14 13 13 13 12 12 14 15 15 15 15 14 14 14 14 15 15 15 15 14 14 15 14 14 14 13 11 8 8 10 10 11 12 13 12 13 13 14 15 13 12 11 12 15 16 15 13 13 13 14 11 10 11 8 6 9 13 14 15 17 17 16 15 15 15 16 16 17 17 16 14 14 13 12 11
17 19 20 17 12 11 11 12 14 15 14 15 15 16 14 13 13 12 11 12 14 15 15 14 14 14 14 13 14 14 13 13 13 12 12 11 9 8 10 13 13 13 13 13 12 13 13 14 13 12 13 13 12 12 13 12 10 10 13 15 14 12 11 8 6 8 10 11 13 15 16 15 14 14 15 18 18 17 16 16 15 15 15 16 15
18 18 18 16 13 12 12 12 12 13 13 12 13 15 16 15 15 14 11 9 9 12 15 16 15 14 14 14 15 13 11 9 8 10 12 12 9 9 11 12 12 13 13 12 12 12 12 12 13 14 15 14 12 11 11 11 11 10 11 12 13 13 12 10 8 9 9 10 11 13 14 15 14 13 13 16 16 15 15 15 16 17 18 18 18
15 15 14 13 13 13 12 11 11 11 11 11 12 14 15 15 17 17 15 13 11 10 10 12 14 13 12 11 10 12 15 14 11 10 13 12 9 8 9 10 11 13 13 12 11 12 12 12 12 14 15 14 12 12 11 13 14 12 12 11 11 13 14 13 11 11 11 12 12 13 14 13 11 10 11 13 14 14 14 14 15 18 19 19 18
8 8 9 9 9 8 8 10 11 11 12 12 13 14 15 15 16 16 15 15 15 14 12 9 7 7 7 4 2 5 11 14 12 10 11 12 11 9 8 9 10 12 13 12 12 12 12 11 12 14 17 16 13 12 12 14 14 12 13 12 12 14 16 15 15 14 13 12 11 11 11 11 10 9 11 12 12 13 14 16 17 18 18 18 18
2 2 3 5 6 6 5 8 11 12 13 14 14 14 15 15 15 15 15 15 15 17 15 10 5 4 5 4 1 1 3 7 9 9 8 10 12 11 10 10 11 12 13 14 12 11 11 12 11 13 15 15 14 12 12 13 13 12 12 12 13 15 16 16 16 15 13 12 11 11 11 11 12 12 11 12 13 14 15 16 18 17 15 15 16
1 1 4 6 7 6 5 5 7 9 11 13 14 14 15 14 13 12 13 13 15 16 13 11 8 4 3 4 3 2 3 6 10 10 10 11 12 11 11 10 10 10 10 9 10 11 12 11 8 6 8 11 13 13 12 11 10 9 10 11 12 13 14 15 16 15 13 13 14 14 13 14 15 13 13 15 17 17 15 15 17 16 12 10 9
4 3 6 9 8 7 8 6 6 7 8 11 13 13 13 12 9 9 9 10 14 14 11 10 8 3 2 3 4 5 6 7 9 9 10 11 12 12 12 10 9 10 9 10 12 14 14 11 7 7 9 10 12 12 12 11 10 10 11 13 14 14 15 16 17 16 15 16 16 16 16 17 18 17 16 17 17 16 15 15 16 15 12 10 9
4 3 5 7 7 8 9 8 9 10 8 8 9 10 10 9 6 6 7 8 11 12 10 8 6 5 6 7 7 5 5 6 7 7 8 9 10 11 12 10 10 10 11 14 16 14 12 11 11 10 10 10 12 12 12 12 12 12 13 14 14 14 14 15 16 16 17 18 19 20 20 19 20 21 20 17 16 16 16 16 16 15 14 13 13
2 2 3 6 7 7 6 6 7 8 8 8 8 8 9 9 7 6 7 8 9 9 7 5 4 6 6 8 9 6 5 4 4 5 6 6 7 9 10 9 9 9 9 10 11 9 8 9 10 9 8 9 11 11 10 11 12 12 12 13 14 14 15 15 16 17 17 18 19 22 23 21 21 23 22 19 19 19 19 20 19 18 17 16 16
3 3 2 2 4 4 4 4 4 5 7 8 8 8 9 11 10 9 8 7 6 5 3 3 5 6 7 9 9 7 5 3 2 4 5 6 6 6 7 6 7 8 7 6 6 5 4 6 8 7 6 6 7 8 9 11 13 13 14 15 16 17 18 17 16 17 18 19 21 23 23 21 21 22 23 22 22 22 22 23 21 19 19 18 18
10 8 7 5 2 3 3 3 4 6 9 8 6 7 9 10 11 10 8 3 2 4 6 6 6 6 7 8 7 5 4 2 1 2 4 6 5 4 3 4 5 5 4 4 4 3 2 2 2 3 3 4 6 9 11 13 14 15 16 16 17 18 19 19 17 17 17 18 20 22 23 23 22 23 24 25 26 25 23 22 21 20 18 16 15
11 10 10 9 7 6 6 4 3 2 5 5 6 7 6 4 6 10 10 5 5 7 8 9 10 10 9 7 6 4 4 3 2 1 3 3 2 1 2 2 3 3 2 3 5 5 5 5 3 1 3 5 7 9 11 12 12 12 12 14 15 15 15 14 14 14 15 17 18 19 20 20 21 22 22 23 23 22 20 21 22 19 14 12 12
12 12 11 10 9 9 9 8 8 7 5 3 1 0 2 4 2 4 7 7 8 8 8 9 11 12 10 8 5 5 5 6 5 4 3 2 3 4 3 4 7 8 7 9 10 8 7 6 5 5 6 7 8 9 11 12 12 11 11 12 13 12 12 14 16 18 19 20 21 20 19 20 21 22 22 22 23 22 22 25 25 20 15 15 13
12 13 13 12 11 11 11 11 12 12 12 12 10 10 10 9 8 7 8 11 13 11 10 11 13 12 10 9 7 7 7 7 7 6 6 3 3 4 4 6 8 9 9 11 11 9 7 5 8 8 8 9 9 10 11 11 11 11 11 10 11 12 14 18 21 22 22 22 21 20 20 20 20 21 21 20 18 15 15 18 18 15 15 16 14
12 13 13 13 13 13 13 13 14 14 14 15 15 15 15 13 12 12 12 13 14 13 12 13 13 11 9 8 8 9 9 9 9 9 8 7 6 6 5 7 9 9 8 8 8 6 5 4 7 9 9 9 9 9 10 11 11 11 10 9 9 11 14 15 15 16 17 19 19 18 18 17 16 15 13 9 5 2 3 4 6 6 6 5 5
17 16 16 15 15 15 15 15 15 15 15 16 16 16 15 14 13 13 13 13 13 13 13 13 13 12 11 10 10 11 11 11 11 11 10 10 10 9 9 9 9 9 7 7 6 5 5 6 7 9 9 8 8 8 8 9 9 10 9 8 8 10 12 14 14 15 16 15 15 15 16 14 11 9 8 7 7 6 4 5 7 8 10 12 10
18 18 18 17 17 16 16 16 17 18 17 17 17 16 15 14 14 14 15 15 14 14 14 15 15 15 14 13 12 11 11 11 10 10 9 9 9 9 10 9 9 8 7 7 7 6 6 7 7 8 8 8 9 8 7 7 8 9 9 9 9 11 13 14 14 14 13 12 14 14 14 13 13 13 14 14 12 11 8 8 9 10 12 14 14
14 15 16 16 16 16 17 16 16 17 18 17 17 17 16 15 15 15 15 16 16 15 14 14 14 14 14 13 12 12 12 12 11 9 8 8 8 8 8 8 8 8 8 8 7 6 6 6 6 7 8 9 9 8 7 7 8 9 9 10 11 12 13 14 13 13 13 14 15 15 13 13 15 15 16 16 15 14 12 11 11 10 10 10 10
14 14 14 14 14 14 14 13 13 14 16 16 16 15 15 14 14 14 14 14 14 14 12 11 10 10 11 11 11 12 13 13 13 11 10 10 9 9 8 8 7 6 7 7 6 5 6 6 6 7 7 8 8 6 6 7 7 8 9 11 13 13 13 14 13 13 14 15 15 14 13 12 14 14 14 14 14 14 14 15 15 14 12 11 11
14 13 12 13 12 12 13 12 12 12 12 12 12 13 13 13 11 11 11 12 12 11 10 8 7 7 7 8 8 9 10 10 10 11 11 11 10 9 9 8 6 7 8 9 7 7 7 8 9 9 7 6 6 6 7 9 10 9 10 12 13 14 15 16 14 13 13 13 13 12 12 12 13 13 12 12 12 12 12 13 14 15 12 11 11
14 13 13 13 12 12 11 11 12 12 10 10 10 9 10 10 9 9 9 9 9 9 8 6 5 5 7 7 8 9 9 8 9 10 10 9 9 10 10 9 7 7 10 10 8 8 8 10 13 13 10 8 8 10 13 14 14 13 13 14 15 16 17 18 17 14 13 13 12 12 11 10 11 12 11 12 12 12 12 11 10 11 10 8 8
11 11 12 12 12 13 12 11 12 13 12 12 12 12 11 11 11 13 13 12 10 9 8 7 7 7 8 8 8 9 9 10 11 11 10 10 10 11 11 10 9 9 10 10 9 8 9 11 13 13 13 13 13 14 16 17 17 17 16 15 16 17 17 17 17 16 14 13 13 13 12 11 12 12 12 13 14 13 13 12 11 11 10 8 7
9 10 10 10 10 11 12 12 12 13 14 15 14 14 13 12 13 14 15 13 11 9 9 9 9 9 9 9 8 8 9 10 11 11 11 11 11 12 12 12 11 12 11 10 9 9 10 10 11 12 14 15 15 15 16 16 17 17 17 16 16 17 18 18 18 17 15 14 13 13 13 13 13 13 13 14 15 14 13 13 13 13 12 10 9
13 13 11 10 9 9 11 12 12 12 13 14 14 14 13 12 12 13 12 11 10 10 10 11 11 10 9 8 8 7 7 8 10 11 11 12 12 12 13 12 13 14 13 10 8 9 10 10 10 11 13 14 14 14 15 15 15 16 17 17 16 17 19 19 18 16 16 14 14 14 13 13 13 13 13 14 14 13 12 12 12 12 13 13 11
10 11 13 13 12 11 10 11 12 12 12 12 13 14 12 11 11 11 10 10 9 9 9 10 10 10 10 10 9 7 7 7 9 10 11 12 12 12 12 13 13 14 14 13 12 12 13 13 13 12 13 14 14 13 13 14 14 15 16 17 17 17 18 18 16 15 15 14 15 15 14 14 14 14 14 14 13 12 12 12 11 12 13 13 12
8 11 13 13 12 11 10 10 11 12 11 11 11 12 12 12 11 10 10 9 8 8 8 9 9 9 10 10 9 8 7 7 8 9 10 11 11 11 11 11 12 13 14 14 14 14 14 14 15 15 14 14 13 13 13 14 15 14 14 15 16 16 17 17 15 14 13 12 13 14 14 14 14 13 12 12 12 12 13 13 12 12 13 13 11
9 9 10 9 8 8 8 8 7 8 8 8 8 8 9 10 10 9 8 8 7 7 7 7 8 8 9 8 8 8 8 7 7 8 10 11 12 12 11 10 11 12 13 13 14 14 13 14 14 15 15 14 13 13 13 13 14 14 13 13 13 14 16 16 14 14 13 12 12 13 13 13 13 13 12 11 11 12 12 11 10 10 11 11 10
9 9 8 7 5 6 6 6 5 5 4 5 6 7 8 9 10 8 6 6 5 5 5 5 6 7 7 7 8 8 8 8 7 8 9 9 10 11 11 11 12 13 13 14 14 14 13 13 13 13 13 13 13 13 13 13 13 14 14 14 13 13 14 15 14 14 14 13 13 13 13 13 14 14 14 14 13 13 13 12 10 8 9 10 11
6 6 6 5 4 3 3 3 4 4 2 1 2 4 5 7 9 8 7 6 5 4 4 3 3 3 4 6 7 7 7 7 7 7 7 7 7 7 6 7 10 13 14 14 14 14 14 13 13 13 14 14 13 13 13 13 13 14 14 14 14 14 15 15 15 16 15 14 13 13 14 14 15 15 16 16 15 15 15 15 14 12 11 11 11
1 0 1 3 3 2 1 2 4 3 2 2 2 3 2 4 6 7 9 10 9 8 7 4 2 2 2 3 4 5 6 6 6 6 6 6 8 9 7 6 9 12 13 14 14 15 15 15 15 16 16 15 15 15 14 14 14 14 13 12 11 12 14 14 13 15 15 13 12 13 13 13 14 15 15 16 16 16 15 15 15 14 13 13 12
4 3 2 2 2 1 2 3 4 5 5 5 5 7 5 3 5 6 6 7 6 7 9 8 5 3 2 0 2 3 4 5 5 6 6 6 8 11 11 10 10 12 12 12 12 13 13 14 14 14 13 14 15 14 13 12 11 10 9 9 9 9 11 10 10 12 13 13 12 13 13 12 12 12 12 12 13 14 14 14 15 15 15 15 14
7 5 6 7 6 6 6 4 2 2 4 5 7 9 8 6 5 5 5 3 1 4 8 9 7 6 6 4 2 2 3 4 5 7 7 6 6 7 8 9 10 10 11 10 10 10 11 12 11 9 9 10 11 11 10 10 10 9 7 7 7 8 9 8 9 11 11 10 11 13 14 14 14 14 13 13 13 13 12 12 13 14 14 15 15
5 4 6 7 7 6 6 4 2 4 4 4 5 7 8 7 6 6 6 6 4 4 7 11 12 10 9 8 6 5 4 4 4 4 2 3 5 5 6 7 7 7 7 7 7 8 9 8 8 9 11 11 11 12 13 14 14 12 10 8 8 8 9 10 12 14 14 13 13 13 15 16 17 17 16 15 15 15 15 14 14 14 13 13 13
2 2 3 5 6 4 4 4 6 8 7 6 6 7 6 7 7 7 6 7 7 7 4 5 9 10 10 9 7 6 5 4 4 4 4 2 2 4 5 4 5 5 5 4 5 5 6 7 8 10 12 12 12 13 15 15 14 14 16 15 15 15 15 14 15 17 18 17 17 16 16 16 17 17 16 14 14 15 15 15 15 15 15 14 13
2 2 2 3 4 4 3 4 6 8 7 6 6 6 5 8 10 9 7 8 10 12 11 7 6 9 10 10 9 7 6 5 6 7 6 1 4 3 2 3 5 6 5 5 5 6 8 10 11 10 10 11 11 13 15 16 16 16 17 16 16 17 16 15 14 15 15 15 16 15 16 16 17 17 16 16 15 16 15 14 14 15 15 15 15
4 2 2 2 1 2 2 3 4 5 6 5 7 7 6 7 8 9 8 8 8 9 11 8 9 10 8 7 8 7 5 5 6 7 6 3 4 5 2 2 3 4 4 5 7 7 7 8 10 10 10 10 10 11 12 14 16 16 16 16 15 16 16 15 14 14 13 13 14 15 15 16 16 16 16 17 17 18 17 15 14 14 15 15 15
3 3 2 1 1 2 3 2 2 3 3 3 5 6 5 5 6 6 7 8 7 7 8 4 7 10 6 3 2 4 4 4 5 6 5 3 2 4 2 1 3 4 3 4 6 6 6 6 8 9 10 9 9 10 11 12 14 14 14 14 14 15 14 14 14 15 15 14 14 15 15 15 15 15 16 16 16 17 17 17 16 15 15 15 16
2 2 2 1 1 3 4 4 6 5 4 5 6 5 4 5 6 6 6 7 7 8 8 4 3 7 6 6 5 4 4 4 5 5 3 2 1 1 1 3 5 4 3 4 5 4 4 5 6 8 9 9 9 10 10 12 13 13 14 13 11 11 11 11 11 12 13 13 13 14 14 15 15 15 15 15 15 16 16 17 17 16 14 15 16
3 4 3 2 1 1 2 3 4 4 4 4 5 4 3 4 6 7 7 6 6 7 8 7 4 3 5 6 6 5 4 4 5 5 3 2 3 2 3 4 5 3 4 5 5 4 4 5 6 7 8 9 10 11 11 12 13 13 13 12 10 8 9 9 10 10 11 12 12 13 14 15 15 15 15 14 15 15 15 15 16 15 14 14 13
6 6 4 2 2 2 1 2 3 3 3 5 7 6 5 3 3 5 7 7 7 8 10 11 10 6 4 5 5 5 5 4 4 3 3 3 3 3 3 4 4 3 3 4 4 4 4 5 5 6 7 9 10 11 11 12 12 12 11 10 8 6 6 7 8 10 11 11 11 12 15 16 16 15 14 14 14 14 14 14 14 14 14 13 13
4 3 3 3 3 2 2 5 4 3 3 5 8 8 5 4 6 8 8 9 9 10 10 12 12 10 7 6 6 5 5 5 4 3 4 5 6 6 6 5 4 3 5 6 6 6 5 5 6 7 8 10 11 11 11 11 11 9 9 9 8 6 5 6 8 10 11 13 13 13 15 16 15 14 14 14 13 13 13 13 13 13 14 13 13
3 2 1 4 6 5 4 3 2 2 3 4 7 7 6 6 7 7 6 5 5 6 6 7 9 10 9 8 8 6 6 6 5 5 5 6 7 8 7 5 5 6 7 8 7 7 6 6 6 7 8 9 10 10 11 11 8 7 8 9 9 9 9 10 11 12 14 16 15 13 13 14 13 13 13 13 13 13 13 13 13 13 13 13 14
4 3 3 2 2 2 4 4 2 2 2 3 5 5 5 6 6 6 6 4 2 2 2 3 4 6 6 7 8 8 7 7 6 6 7 8 8 8 7 6 7 9 9 9 9 8 8 7 7 7 8 9 9 11 11 9 6 6 8 10 10 12 13 13 14 14 15 15 14 12 12 12 12 12 13 13 12 12 13 13 12 13 13 13 14
2 3 4 2 0 1 4 4 3 3 4 4 4 3 4 4 5 5 7 6 5 6 6 4 4 4 5 5 5 6 7 8 8 7 8 8 8 7 6 6 7 8 8 8 9 9 9 9 9 8 7 8 9 11 10 7 6 7 10 11 12 14 15 15 14 15 15 13 12 11 12 12 11 12 12 12 12 12 13 13 13 14 14 13 14
1 2 5 5 2 3 3 3 3 4 4 4 4 4 4 4 4 5 6 5 5 6 7 7 7 7 6 6 7 7 7 8 7 7 6 5 5 5 4 4 5 6 6 7 7 7 8 9 9 8 7 8 10 10 8 6 7 9 11 13 14 15 14 14 14 13 13 12 12 12 12 12 12 12 13 13 14 14 14 14 14 15 15 15 14
3 3 6 5 3 4 4 2 3 3 3 2 2 4 5 4 2 3 5 6 5 5 5 5 6 6 5 4 4 4 4 5 5 5 5 4 4 4 5 5 5 5 5 6 7 7 7 8 8 8 8 8 9 8 7 7 9 11 13 14 14 14 14 14 13 12 11 12 12 12 12 12 13 13 13 14 15 15 14 14 15 15 15 15 15
Wind_Direction
187 189 196 199 199 201 202 204 210 215 218 220 222 224 223 222 223 223 226 227 221 216 217 221 223 218 214 216 221 227 227 222 222 226 230 231 231 237 243 244 244 245 246 250 255 262 266 267 270 272 270 270 273 275 277 277 275 271 267 266 264 261 258 256 259 277 285 286 290 295 294 293 296 291 285 287 280 277 289 294 292 298 298 294 290
178 186 193 203 208 204 204 208 210 215 221 221 224 229 229 228 229 227 230 231 225 221 222 223 226 226 224 225 227 230 230 224 220 224 230 233 233 236 242 245 247 248 249 252 258 265 270 272 277 277 272 269 269 271 275 278 281 280 273 268 267 263 257 257 258 266 277 285 289 293 295 292 290 292 291 289 284 284 293 292 289 294 296 299 306
174 184 178 193 227 215 210 220 216 216 225 226 225 230 231 232 232 231 235 235 229 229 230 226 226 229 230 233 233 230 228 226 225 226 229 233 235 236 239 243 245 245 249 258 264 267 270 272 276 276 275 278 279 281 285 286 292 298 297 292 284 276 271 277 288 296 300 305 303 301 306 304 298 300 299 296 293 291 295 295 292 293 297 310 324
175 190 186 187 222 218 212 230 231 223 233 237 234 233 235 235 232 231 236 238 235 234 231 228 231 233 231 233 236 233 231 233 231 228 231 236 238 242 250 255 255 256 261 265 267 268 268 270 275 278 286 301 307 304 302 299 302 306 305 306 306 300 296 300 319 319 306 301 298 297 305 308 306 306 302 296 291 286 286 290 296 300 300 308 316
182 194 193 191 211 216 209 224 235 227 229 236 235 230 236 246 240 232 234 238 239 239 235 231 231 231 230 235 240 239 238 241 240 238 243 247 245 253 271 270 265 266 268 267 267 268 266 270 277 279 280 290 296 295 294 293 299 305 307 309 309 305 303 301 305 299 284 280 285 290 298 309 313 310 301 295 296 294 291 288 293 299 296 299 308
189 193 194 194 207 215 206 218 234 235 234 238 237 231 237 254 256 248 243 241 241 241 239 237 234 232 234 241 246 246 246 250 250 248 250 258 261 255 255 255 253 255 260 265 270 273 273 277 280 276 273 272 269 279 292 294 298 314 324 324 317 309 311 310 296 290 287 284 284 285 293 303 305 304 303 301 301 301 298 293 291 293 291 294 303
180 183 192 198 200 200 198 205 222 229 230 234 236 232 235 245 250 255 262 259 252 250 246 243 240 236 236 242 247 249 253 261 268 263 256 262 272 265 259 260 258 256 261 268 274 276 278 283 281 275 278 279 269 270 283 287 291 302 317 327 326 315 310 307 294 290 290 287 281 280 290 298 299 300 301 302 305 304 298 294 291 294 295 296 300
168 172 188 198 199 199 198 203 215 227 235 236 233 235 241 244 244 249 257 255 252 262 264 251 244 244 242 242 242 238 241 247 257 266 263 261 266 266 267 269 263 260 265 271 275 275 277 287 294 289 289 289 278 272 278 283 286 284 282 292 306 304 302 305 305 302 297 294 291 289 295 300 300 297 287 287 298 302 298 295 293 295 298 297 298
160 169 183 191 200 203 203 214 227 243 255 250 242 242 249 251 250 255 261 256 249 256 267 263 255 260 258 252 239 233 238 236 237 247 255 255 256 258 260 266 266 266 268 273 282 286 288 301 319 319 312 305 295 286 284 286 285 284 288 292 290 288 293 297 297 296 293 291 288 290 295 292 288 294 292 288 291 290 289 289 288 292 295 295 297
152 188 200 209 214 208 210 225 237 250 259 260 259 256 255 256 260 264 265 262 257 259 262 255 247 264 255 235 230 287 251 232 229 238 250 255 260 263 262 266 273 275 275 278 285 294 297 299 308 318 321 322 316 303 293 292 289 289 296 295 283 278 282 285 287 287 283 277 277 281 284 279 279 287 289 288 289 285 281 280 281 285 290 293 300
226 222 229 235 229 221 227 243 258 264 265 267 267 265 266 269 275 279 276 272 269 266 260 246 236 247 256 230 212 204 222 233 236 240 248 254 259 264 264 265 272 277 282 284 285 292 297 295 292 294 302 312 313 302 291 291 290 290 296 295 285 282 281 283 286 285 276 268 271 273 272 274 278 277 271 279 290 290 284 275 272 276 279 283 297
212 212 238 247 248 252 254 253 263 273 281 280 275 273 276 276 283 295 296 288 277 266 253 242 233 207 141 149 157 166 184 209 227 233 241 247 251 254 255 256 262 265 268 272 279 288 294 291 280 275 277 286 291 285 280 280 279 285 293 295 292 291 291 291 291 286 279 275 274 270 269 274 278 275 274 281 287 285 278 271 270 272 270 260 263
217 224 258 267 270 272 268 258 257 261 268 277 276 272 268 265 279 299 296 289 277 262 247 241 222 168 147 139 136 154 182 197 216 229 237 242 245 246 248 255 267 272 275 282 288 294 293 286 284 286 288 288 284 280 282 283 281 284 292 296 296 293 292 293 294 293 288 282 278 275 276 278 278 279 281 282 279 276 272 271 272 273 271 266 267
257 231 248 261 262 268 270 259 258 264 266 269 272 268 255 247 252 270 274 277 272 258 247 239 187 145 139 138 142 158 178 183 207 233 245 254 255 253 254 263 276 281 286 295 304 309 301 296 302 307 303 293 286 286 294 298 297 298 299 299 298 296 295 297 298 299 295 285 278 278 281 282 281 283 287 285 279 275 273 273 272 270 270 269 272
84 100 103 269 273 286 290 269 261 280 284 278 277 278 266 254 247 248 255 264 256 232 191 162 155 125 109 124 140 143 136 150 213 247 260 272 274 271 274 283 289 288 295 308 314 315 306 306 318 326 318 303 299 301 308 310 309 310 308 305 303 301 299 299 297 294 292 289 285 282 283 284 284 287 290 289 283 277 275 277 276 272 268 266 268
84 87 88 83 56 30 4 305 276 282 288 288 285 283 274 261 248 239 234 226 176 158 137 132 143 131 118 133 143 127 105 104 280 287 289 288 286 288 300 310 308 298 300 327 337 341 354 346 333 322 303 298 302 301 304 308 310 311 311 308 306 303 300 302 303 296 291 290 289 286 284 284 284 286 289 290 289 286 283 280 275 268 263 263 270
77 80 82 79 76 76 74 81 120 219 269 281 279 280 280 261 241 235 228 197 131 132 129 115 109 111 117 128 131 117 90 51 24 353 321 310 309 15 3 350 355 351 343 13 21 38 67 81 92 51 322 321 317 314 314 318 321 323 320 314 312 311 308 307 305 299 294 292 291 288 285 282 283 288 292 294 294 290 280 271 268 267 265 266 269
72 74 74 75 76 79 79 83 98 117 124 126 165 213 82 88 115 204 197 160 129 125 124 111 101 98 98 99 98 96 78 48 35 38 33 49 118 97 86 101 84 71 74 71 66 77 84 66 39 13 358 348 341 336 334 335 337 336 332 328 327 325 321 317 314 310 307 306 305 302 297 294 294 296 299 300 299 291 278 271 269 263 253 250 251
74 74 73 75 77 77 77 81 88 93 94 93 94 101 106 106 106 110 115 110 104 102 104 103 100 97 93 90 82 75 69 50 34 39 45 49 82 88 97 106 88 76 85 88 83 91 90 35 354 352 354 345 343 344 342 341 342 340 340 339 332 324 321 322 322 321 320 321 322 320 317 314 309 306 306 307 306 296 279 275 275 262 250 247 242
81 82 81 81 82 80 78 81 84 86 86 86 88 93 99 101 100 98 96 96 97 98 98 95 93 91 88 82 71 61 58 51 41 42 45 44 47 58 78 89 76 69 77 81 68 61 63 24 353 354 357 349 344 344 340 339 341 345 350 345 335 335 339 341 343 343 339 337 336 335 336 333 324 319 320 321 326 322 283 296 315 313 315 309 250
80 80 79 79 80 80 79 80 82 83 85 89 89 88 90 91 93 94 95 97 96 95 93 88 84 81 75 67 61 56 51 46 43 41 42 42 42 44 52 62 65 65 71 78 66 40 28 27 18 12 8 359 351 346 345 349 357 7 14 13 8 7 7 7 6 0 352 349 351 353 355 357 360 10 28 55 70 57 37 29 29 33 44 55 70
85 86 84 81 79 78 78 78 78 77 79 83 83 82 82 83 83 85 86 85 83 81 81 81 81 79 75 68 62 55 48 40 36 33 32 34 33 33 37 39 42 47 53 63 69 53 31 27 23 13 7 3 3 10 18 24 32 38 38 37 30 19 14 14 11 6 8 19 26 27 30 38 46 53 59 64 62 55 51 48 47 55 70 79 83
80 83 84 85 88 88 86 82 81 81 80 80 80 81 82 82 82 82 81 79 78 77 75 74 73 72 70 67 60 53 47 40 35 31 30 33 34 34 38 41 44 48 50 52 61 61 41 28 22 16 12 11 15 28 40 44 49 51 44 36 28 20 19 23 22 27 40 48 48 47 51 57 60 60 61 61 58 53 50 47 45 49 60 71 76
70 71 70 73 79 84 84 84 88 92 91 89 88 89 89 88 90 90 86 83 83 86 86 83 80 76 70 63 55 48 44 40 37 39 43 43 42 42 44 47 49 46 40 36 39 41 32 26 23 18 12 10 16 31 40 36 38 41 37 32 28 24 27 33 36 44 51 51 50 53 57 62 66 65 63 62 61 60 58 57 56 56 64 74 72
65 68 67 65 69 73 73 74 81 90 95 95 97 98 97 96 98 98 96 95 95 95 95 92 91 90 79 67 57 51 47 40 34 39 48 49 47 48 42 34 34 38 33 27 23 22 22 23 22 17 8 4 14 22 17 7 1 5 21 35 39 36 38 44 47 47 48 47 52 60 63 63 64 63 62 61 59 53 50 50 51 52 61 74 70
73 71 67 62 63 67 69 70 70 70 72 76 79 85 88 86 78 73 80 95 99 92 84 79 87 100 94 85 78 68 59 49 41 44 53 56 56 54 44 36 44 49 35 26 25 30 34 33 28 29 36 45 45 39 30 23 25 37 49 53 50 47 47 51 52 48 44 47 55 58 54 51 53 54 54 56 53 46 40 39 43 44 45 49 53
87 86 80 73 69 66 62 62 59 54 58 66 66 62 60 58 58 59 61 67 71 67 61 53 53 70 79 79 81 73 56 50 51 53 57 60 62 60 52 48 56 54 36 29 34 41 47 45 40 41 50 55 55 52 48 45 48 56 61 57 51 49 50 52 52 53 50 47 51 53 48 45 48 49 49 51 49 44 41 40 40 39 35 36 46
64 73 79 80 85 82 72 65 60 56 60 68 70 65 57 54 58 62 61 60 59 59 65 59 47 52 64 65 70 72 58 48 51 54 57 59 62 63 58 51 50 42 30 30 43 49 53 54 52 52 54 54 55 54 50 48 50 51 50 48 47 49 50 48 46 47 47 45 47 49 45 44 48 48 47 47 44 39 36 33 30 30 28 29 35
42 45 49 51 63 80 79 73 72 70 68 68 68 69 66 64 68 69 65 63 61 61 71 73 62 59 66 66 67 72 64 54 52 54 56 57 57 57 53 45 39 32 24 24 34 44 51 54 57 61 61 57 56 54 49 46 49 50 47 43 42 43 45 44 39 35 35 39 45 47 45 44 44 42 39 38 35 31 31 30 26 24 22 17 14
46 52 49 39 39 53 66 73 78 81 80 78 77 77 74 72 74 74 71 69 66 66 79 87 82 78 78 74 72 73 72 68 64 62 61 60 58 57 52 43 36 32 32 35 36 38 43 42 38 46 57 55 49 49 47 41 40 43 44 41 38 38 39 38 35 32 33 38 42 42 40 38 36 33 30 28 22 16 16 18 17 16 12 5 358
56 72 64 49 42 49 60 69 78 83 87 89 89 88 85 80 76 76 77 76 74 77 86 91 91 87 80 71 66 67 71 74 73 71 69 65 63 62 58 51 45 42 42 45 43 41 44 41 31 31 44 50 45 41 41 38 35 35 36 36 35 35 32 28 27 30 33 34 36 34 29 26 24 22 19 17 12 6 6 9 9 7 2 357 354
46 64 69 61 55 65 75 80 85 94 104 111 111 111 109 102 93 84 83 86 87 88 90 90 88 84 79 71 64 65 72 78 81 82 79 73 71 69 63 56 53 51 49 48 46 44 45 45 39 32 33 40 42 39 37 34 30 29 32 33 34 31 24 18 20 26 27 24 24 23 18 15 14 10 4 360 356 354 353 352 352 355 355 352 349
39 45 55 57 54 67 81 89 94 103 120 137 150 165 162 141 127 119 109 105 104 99 94 89 81 75 73 69 63 61 67 74 80 86 86 80 74 72 69 65 59 53 49 46 44 42 43 45 44 37 34 35 37 37 37 32 26 26 30 31 31 30 23 17 17 19 18 16 17 18 15 13 10 4 357 353 350 347 345 341 341 352 360 355 349
49 42 53 67 72 79 93 106 116 130 145 129 168 204 184 144 140 149 151 148 149 140 126 114 98 84 75 69 63 59 63 71 80 87 87 77 57 44 51 67 63 54 46 42 42 41 42 43 41 36 36 37 33 32 34 30 26 28 27 23 24 24 19 15 14 12 9 7 13 18 16 13 11 7 360 355 352 352 352 352 355 4 7 360 353
58 306 150 131 133 166 196 53 64 70 54 42 350 292 260 145 161 179 180 181 184 174 162 155 133 99 71 56 62 63 62 68 81 84 80 66 44 30 26 49 63 58 49 44 46 45 42 42 41 36 35 36 32 30 32 30 29 29 24 15 12 14 14 14 15 12 7 4 11 18 16 9 7 6 1 356 356 355 354 353 355 358 357 352 347
319 280 205 115 62 62 70 55 45 30 9 352 327 311 298 227 216 226 217 203 185 163 164 172 171 166 182 145 67 72 71 75 83 85 85 80 59 45 42 49 57 60 54 48 51 53 49 46 44 40 41 42 34 28 32 33 26 20 15 12 14 19 21 21 18 14 11 7 6 8 3 355 355 356 353 351 353 350 347 348 350 349 346 342 337
322 346 43 42 21 23 45 64 82 32 351 331 317 312 308 295 282 288 289 279 170 145 165 180 190 195 195 193 177 128 109 111 114 105 95 86 62 49 55 58 57 60 60 51 47 55 57 50 38 31 45 55 42 25 18 10 357 350 2 20 27 26 22 12 360 1 6 5 360 358 356 354 356 357 354 351 349 345 341 343 344 340 337 335 334
300 330 11 11 355 350 3 4 301 274 272 267 275 286 290 293 300 310 312 300 276 225 190 192 199 198 188 179 172 163 158 160 155 136 84 26 18 36 63 74 70 70 69 55 47 55 57 47 30 23 31 40 34 19 7 360 354 355 359 357 355 3 13 13 5 2 4 9 10 9 4 1 0 2 0 356 351 347 345 343 337 328 324 325 327
271 243 316 353 357 343 322 303 294 289 275 260 264 275 289 311 314 302 299 312 322 324 299 221 196 185 182 183 182 178 183 198 221 253 272 292 45 50 54 65 69 73 83 79 65 54 43 35 35 37 36 33 26 17 9 3 3 9 9 1 357 2 10 16 14 10 10 14 15 11 6 1 358 356 353 347 341 338 336 333 327 320 315 318 319
356 158 132 59 21 351 315 289 294 299 295 294 305 315 339 351 343 332 331 347 353 347 343 3 88 132 166 184 188 190 198 219 256 278 283 211 134 114 52 45 52 50 54 62 55 40 30 25 25 33 43 38 24 13 7 2 360 4 7 5 3 3 5 8 8 7 8 11 10 8 5 0 356 352 346 341 336 331 325 322 322 320 319 319 318
349 2 98 113 33 352 295 250 256 273 281 303 329 336 337 339 343 346 344 343 343 336 337 11 80 109 139 165 176 194 221 252 281 304 329 28 116 129 119 84 74 59 44 47 51 47 40 26 17 23 37 34 17 8 7 4 360 0 2 1 1 0 1 3 7 11 15 14 10 6 2 356 352 348 343 339 336 333 330 328 326 323 319 316 315
338 337 352 0 351 324 292 290 326 311 290 321 352 343 327 328 344 349 333 319 315 315 319 354 95 102 89 82 190 233 259 280 296 314 333 359 105 131 133 79 88 92 66 52 57 54 41 24 15 19 27 27 20 16 10 1 358 357 356 356 359 1 1 2 7 14 19 15 8 1 356 352 348 344 340 337 335 335 334 331 327 323 323 326 331
317 304 296 280 332 328 324 351 3 347 344 23 24 2 336 330 324 313 308 315 321 317 310 311 101 92 57 23 355 327 308 296 302 315 325 345 54 119 131 85 85 86 62 61 77 73 42 21 12 12 15 19 26 24 10 1 359 354 347 347 353 356 358 2 8 13 14 9 2 358 353 349 343 338 335 334 334 333 331 327 324 323 328 334 337
271 268 255 208 160 347 336 355 348 322 319 345 335 294 254 266 285 287 293 306 315 320 324 329 346 33 32 19 4 351 333 319 327 343 357 14 21 26 56 74 76 61 41 55 74 75 44 20 8 8 9 12 19 18 9 5 2 355 350 353 357 359 6 11 12 11 8 3 358 354 349 343 339 335 331 330 330 330 328 326 325 327 330 333 331
279 273 263 220 199 220 205 73 23 316 294 315 313 289 248 237 302 346 4 4 359 358 354 348 344 348 8 11 358 349 348 351 356 5 6 3 8 20 45 68 75 58 37 38 40 37 26 9 5 14 18 18 20 18 13 9 4 357 356 0 3 14 32 30 15 8 4 357 351 345 338 333 330 328 326 326 326 326 324 323 322 323 324 324 324
309 291 299 342 351 346 69 71 40 335 318 328 321 313 313 329 346 6 23 27 20 12 360 349 347 350 359 5 4 4 6 4 5 11 15 19 26 33 41 55 63 48 34 29 25 23 24 26 33 36 31 25 22 18 13 10 3 355 353 356 356 2 13 1 350 348 347 344 341 336 329 324 322 321 322 323 323 322 322 320 318 318 317 317 318
315 250 287 7 15 5 6 24 7 330 334 321 302 304 327 338 333 339 358 21 33 27 9 354 350 350 356 6 10 8 9 10 9 13 23 33 35 33 32 35 38 40 39 34 25 18 16 22 30 30 23 19 16 11 8 5 357 349 354 0 359 355 350 344 341 340 340 341 340 333 324 321 319 317 318 321 319 318 318 316 315 316 316 315 315
288 265 280 358 42 301 286 295 292 262 273 285 286 303 329 333 330 336 340 340 7 38 26 14 5 358 3 15 18 12 14 19 18 18 30 41 42 38 33 24 21 25 27 21 18 24 30 26 20 18 18 15 10 3 0 356 348 346 353 356 354 349 345 342 341 340 341 344 343 334 324 321 319 315 316 317 316 315 316 314 314 315 314 313 313
277 301 303 302 131 246 270 291 327 330 315 306 294 295 318 333 337 331 328 337 354 352 343 357 30 19 2 7 19 21 22 25 24 28 40 47 44 41 37 20 7 7 6 4 9 23 29 25 21 23 20 10 3 359 354 347 343 348 350 349 348 345 343 342 343 341 339 339 337 331 326 322 318 315 315 315 315 315 314 313 313 313 312 311 312
201 324 291 280 318 343 305 240 221 241 263 289 311 314 312 317 314 310 319 341 353 338 332 357 26 23 9 15 31 34 28 24 20 21 31 38 33 25 16 359 352 358 2 358 356 358 2 8 15 19 12 3 0 357 346 335 339 345 344 343 344 346 347 348 346 341 334 326 323 327 329 323 316 315 317 317 318 318 315 314 315 314 313 314 316
192 216 246 250 290 333 321 279 247 244 237 240 298 300 296 300 331 345 343 341 329 311 316 356 12 359 341 352 25 32 25 17 4 353 355 5 5 355 344 335 333 342 350 348 342 340 342 347 353 356 354 354 356 351 339 331 336 340 339 338 340 344 347 345 341 338 332 322 320 328 332 323 314 315 319 319 318 318 316 315 316 315 314 316 320